TimeEST,TemperatureF,Dew PointF,Humidity,Sea Level PressureIn,VisibilityMPH,Wind Direction,Wind SpeedMPH,Gust SpeedMPH,PrecipitationIn,Events,Conditions,WindDirDegrees,DateUTC
12:01 AM,33.8,26.6,75,29.80,4.0,NNE,10.4,17.3,0.02,Rain,Rain,30,2013-02-27 05:01:00
12:08 AM,32.0,26.6,80,29.79,4.0,ENE,9.2,17.3,0.02,Rain,Light Freezing Rain,60,2013-02-27 05:08:00
12:38 AM,33.8,28.4,81,29.78,4.0,NE,10.4,17.3,0.07,Rain,Light Freezing Rain,50,2013-02-27 05:38:00
12:54 AM,33.1,28.9,85,29.78,6.0,NNE,9.2,16.1,0.08,Rain,Light Freezing Rain,20,2013-02-27 05:54:00
1:38 AM,33.8,30.2,87,29.73,7.0,ENE,8.1,-,0.01,Rain,Light Rain,60,2013-02-27 06:38:00
1:54 AM,35.1,30.0,82,29.73,10.0,East,17.3,29.9,0.01,Rain,Light Rain,80,2013-02-27 06:54:00
2:54 AM,35.1,30.0,82,29.69,10.0,East,9.2,20.7,0.01,,Overcast,80,2013-02-27 07:54:00
3:54 AM,36.0,30.9,82,29.63,10.0,East,9.2,27.6,0.00,,Overcast,100,2013-02-27 08:54:00
4:54 AM,37.0,32.0,82,29.60,9.0,NE,17.3,25.3,N/A,,Overcast,50,2013-02-27 09:54:00
5:54 AM,37.9,33.1,83,29.58,9.0,East,9.2,21.9,N/A,,Overcast,80,2013-02-27 10:54:00
7:54 AM,39.9,34.0,79,29.55,6.0,East,10.4,21.9,N/A,,Haze,90,2013-02-27 12:54:00
8:14 AM,39.2,33.8,81,29.53,10.0,East,10.4,24.2,N/A,,Overcast,100,2013-02-27 13:14:00
8:30 AM,41.0,33.8,76,29.53,10.0,SE,8.1,19.6,N/A,,Overcast,140,2013-02-27 13:30:00
8:54 AM,41.0,35.1,79,29.54,10.0,ESE,9.2,25.3,N/A,,Overcast,120,2013-02-27 13:54:00
9:54 AM,41.0,36.0,82,29.52,5.0,ENE,8.1,17.3,0.00,Rain,Light Rain,70,2013-02-27 14:54:00
10:35 AM,41.0,37.4,87,29.51,2.5,Variable,4.6,-,0.03,Rain,Rain,0,2013-02-27 15:35:00
10:44 AM,41.0,37.4,87,29.52,4.0,Variable,3.5,-,0.04,Rain,Light Rain,0,2013-02-27 15:44:00
10:54 AM,41.0,37.9,89,29.53,5.0,Variable,5.8,-,0.04,Rain,Light Rain,0,2013-02-27 15:54:00
11:54 AM,39.9,39.0,97,29.56,2.0,WSW,8.1,17.3,0.07,Rain,Heavy Rain,250,2013-02-27 16:54:00
11:57 AM,41.0,39.2,93,29.54,1.8,SW,6.9,17.3,0.02,Rain,Heavy Rain,230,2013-02-27 16:57:00
12:08 PM,39.2,37.4,93,29.55,1.2,SW,16.1,24.2,0.05,Rain,Rain,220,2013-02-27 17:08:00
12:15 PM,37.4,35.6,93,29.56,3.0,SW,13.8,23.0,0.05,Rain,Light Rain,220,2013-02-27 17:15:00
12:34 PM,37.4,35.6,93,29.56,6.0,SSW,9.2,-,0.08,Rain,Light Rain,210,2013-02-27 17:34:00
12:46 PM,37.4,35.6,93,29.55,8.0,SSW,8.1,-,0.09,Rain,Light Rain,210,2013-02-27 17:46:00
12:54 PM,37.0,35.1,93,29.57,9.0,SSW,9.2,19.6,0.10,Rain,Light Rain,210,2013-02-27 17:54:00
1:31 PM,37.4,35.6,93,29.54,5.0,SSW,9.2,-,N/A,Rain,Light Rain,210,2013-02-27 18:31:00
1:54 PM,37.0,35.1,93,29.55,9.0,Variable,6.9,-,0.04,Rain,Light Rain,0,2013-02-27 18:54:00
2:06 PM,37.4,35.6,93,29.53,10.0,SW,6.9,-,0.01,,Overcast,220,2013-02-27 19:06:00
2:14 PM,37.4,35.6,93,29.54,10.0,SW,4.6,-,0.01,,Overcast,230,2013-02-27 19:14:00
2:54 PM,39.0,35.1,86,29.56,10.0,SW,10.4,18.4,0.01,,Overcast,220,2013-02-27 19:54:00
3:08 PM,39.2,35.6,87,29.55,10.0,SW,12.7,19.6,N/A,,Overcast,230,2013-02-27 20:08:00
3:54 PM,39.0,35.1,86,29.57,9.0,SW,11.5,19.6,N/A,,Overcast,230,2013-02-27 20:54:00
4:08 PM,39.2,35.6,87,29.56,10.0,SW,10.4,17.3,N/A,,Overcast,230,2013-02-27 21:08:00
4:29 PM,39.2,33.8,81,29.57,10.0,SW,10.4,-,N/A,,Overcast,230,2013-02-27 21:29:00
4:54 PM,39.0,34.0,82,29.58,10.0,SW,9.2,-,N/A,,Overcast,230,2013-02-27 21:54:00
5:54 PM,37.9,34.0,86,29.60,10.0,SW,9.2,-,N/A,,Overcast,230,2013-02-27 22:54:00
6:10 PM,37.4,33.8,87,29.60,10.0,SW,9.2,-,N/A,,Overcast,230,2013-02-27 23:10:00
6:54 PM,39.0,35.1,86,29.62,10.0,SW,10.4,-,N/A,,Overcast,230,2013-02-27 23:54:00
7:26 PM,39.2,35.6,87,29.61,10.0,SW,6.9,-,N/A,,Overcast,230,2013-02-28 00:26:00
7:54 PM,39.0,35.1,86,29.62,10.0,SW,6.9,-,N/A,,Overcast,230,2013-02-28 00:54:00
8:14 PM,39.2,35.6,87,29.62,10.0,SW,4.6,-,N/A,,Overcast,230,2013-02-28 01:14:00
8:23 PM,39.2,35.6,87,29.62,10.0,SW,6.9,-,N/A,,Overcast,230,2013-02-28 01:23:00
8:34 PM,39.2,35.6,87,29.61,10.0,SSW,8.1,-,N/A,,Overcast,210,2013-02-28 01:34:00
8:54 PM,39.2,35.6,87,29.62,10.0,SW,6.9,-,N/A,,Overcast,220,2013-02-28 01:54:00
9:21 PM,39.2,35.6,87,29.62,10.0,SW,5.8,-,N/A,,Overcast,220,2013-02-28 02:21:00
9:54 PM,39.0,35.1,86,29.63,10.0,WSW,3.5,-,N/A,,Overcast,240,2013-02-28 02:54:00
10:54 PM,39.0,35.1,86,29.62,9.0,SW,3.5,-,N/A,,Overcast,230,2013-02-28 03:54:00
11:54 PM,39.0,35.1,86,29.60,10.0,SW,3.5,-,N/A,,Overcast,220,2013-02-28 04:54:00